Location: Mount Wilson Observatory
(34.2257°N, 118.0571°W)
Time: 18:36:26
(UTC-08:00)

ATLAS 3B CENTAUR R/B - Visible Passes

Search period start: 16 December 2017 00:00
Search period end: 26 December 2017 00:00
Orbit: 222 x 5695 km, 28.1° (Epoch: 16 December)

Date Brightness Start Highest point End Pass type
(mag) Time Alt. Az. Time Alt. Az. Time Alt. Az.
16 Dec 5.7 01:59:39 62° SSE 01:59:39 62° SSE 02:30:43 10° ESE visible
16 Dec 6.0 04:29:15 31° WSW 04:44:43 47° SSW 05:18:50 10° SSE visible
17 Dec 6.3 00:25:53 31° ESE 00:25:53 31° ESE 00:39:48 10° ESE visible
17 Dec 5.6 02:55:28 59° SSW 02:57:19 60° SSW 03:33:46 10° SE visible
17 Dec 6.4 05:25:02 14° W 05:47:38 34° SW 06:17:26 10° SSE visible
18 Dec 5.9 01:21:31 47° SE 01:21:31 47° SE 01:44:31 10° ESE visible
18 Dec 5.8 03:51:04 41° WSW 04:00:00 48° SSW 04:34:53 10° SE visible
18 Dec 6.8 06:28:13 10° W 06:50:04 22° SW 07:13:01 10° S visible
18 Dec 6.7 23:47:24 18° E 23:47:24 18° E 23:52:51 10° E visible
19 Dec 5.7 02:16:56 57° S 02:16:56 57° S 02:47:49 10° SE visible
19 Dec 6.2 04:46:28 23° WSW 05:02:33 36° SSW 05:33:52 10° SSE visible
20 Dec 6.3 00:42:39 32° ESE 00:42:39 32° ESE 00:57:06 10° ESE visible
20 Dec 5.7 03:12:10 48° SW 03:14:58 49° SSW 03:49:17 10° SE visible
20 Dec 6.6 05:43:23 10° W 06:04:50 24° SW 06:30:09 10° S visible
21 Dec 5.9 01:37:41 45° SE 01:37:41 45° SE 02:00:24 10° ESE visible
21 Dec 6.0 04:07:11 31° WSW 04:16:54 37° SSW 04:48:40 10° SSE visible
22 Dec 6.6 00:03:03 18° ESE 00:03:03 18° ESE 00:08:56 10° ESE visible
22 Dec 5.8 02:32:32 48° S 02:32:32 48° S 03:02:06 10° SE visible
22 Dec 6.4 05:02:01 15° WSW 05:18:51 26° SW 05:45:32 10° S visible
23 Dec 6.2 00:57:42 31° SE 00:57:42 31° SE 01:11:51 10° ESE visible
23 Dec 5.9 03:27:10 37° SW 03:30:54 38° SSW 04:01:50 10° SSE visible
23 Dec 6.7 06:06:17 10° WSW 06:20:58 15° SW 06:37:32 10° S visible
24 Dec 6.0 01:52:08 40° SSE 01:52:08 40° SSE 02:13:31 10° SE visible
24 Dec 6.2 04:21:35 21° WSW 04:32:15 27° SSW 04:59:11 10° SSE visible
25 Dec 6.6 00:16:57 18° ESE 00:16:57 18° ESE 00:22:35 10° ESE visible
25 Dec 5.9 02:46:22 37° SSW 02:46:22 37° SSW 03:13:26 10° SSE visible
25 Dec 6.6 05:18:54 10° WSW 05:33:57 16° SSW 05:52:35 10° S visible
